Tracking 18816 objects as of 19-October-2017
HD Live streaming from Space Station
objects crossing your sky now

PUCP-SAT 1

Track PUCP-SAT 1 now!
10-day predictions
PUCP-SAT 1 is classified as:


NORAD ID: 39442
Int'l Code: 2013-066AC
Perigee: 581.6 km
Apogee: 626.6 km
Inclination: 97.6 °
Period: 96.6 minutes
Semi major axis: 6975 km
RCS: Unknown
Launch date: November 21, 2013
Source: (TBD)
Launch site: Orenburg, Russia (OREN)
Uplink (MHz): 145.840
Downlink (MHz): 145.840/437.200
Beacon (MHz):
Mode: 1200bps AFSK
Call sign:
Status: Inactive

aabbcc
Your satellite tracking list
Your tracking list is empty





NASA's NSSDC Master Catalog

Two Line Element Set (TLE):
1 39442U 13066AC  17291.22678562  .00000512  00000-0  57854-4 0  9997
2 39442  97.6355 348.5433 0032295 171.7432 188.4324 14.90309826211012
Source of the keplerian elements: AFSPC